Location: Rounton
(54.4000°N, 1.3500°W)
Time: 10:46:55
(UTC+00:00)

Vanguard 1 - All Passes

Search period start: 22 February 2024 00:00
Search period end: 03 March 2024 00:00
Orbit: 653 x 3826 km, 34.3° (Epoch: 21 February)

Date Brightness Start Highest point End Pass type
(mag) Time Alt. Az. Time Alt. Az. Time Alt. Az.
22 Feb - 01:10:30 10° W 01:29:08 35° SSW 01:46:48 10° SSE visible
22 Feb - 03:38:04 10° W 03:50:06 17° SW 04:00:55 10° SSW visible
22 Feb - 18:33:13 10° S 18:42:54 19° SE 18:55:09 10° E visible
22 Feb - 20:48:18 10° SW 21:03:19 37° SSE 21:22:47 10° ESE visible
22 Feb - 23:08:05 10° WSW 23:26:10 42° S 23:46:20 10° SE visible
23 Feb - 01:31:10 10° W 01:48:58 31° SSW 02:05:52 10° SSE visible
23 Feb - 04:01:42 10° WSW 04:09:21 13° SW 04:16:33 10° SW visible
23 Feb - 18:51:27 10° S 19:02:18 23° SE 19:16:41 10° E visible
23 Feb - 21:07:54 10° SW 21:23:15 39° SSE 21:43:13 10° ESE visible
23 Feb - 23:28:16 10° WSW 23:46:15 40° S 00:06:08 10° SE visible
24 Feb - 01:52:03 10° W 02:08:41 27° SW 02:24:33 10° SSE visible
24 Feb - 19:10:12 10° SSW 19:21:50 27° SE 19:37:46 10° E visible
24 Feb - 21:27:40 10° SW 21:43:15 40° S 22:03:31 10° ESE visible
24 Feb - 23:48:33 10° WSW 00:06:18 38° SSW 00:25:45 10° SE visible
25 Feb - 02:13:19 10° W 02:28:18 23° SW 02:42:42 10° S visible
25 Feb - 17:18:06 10° SE 17:22:28 12° SE 17:27:25 10° ESE daylight
25 Feb - 19:29:19 10° SSW 19:41:29 31° SSE 19:58:36 10° E visible
25 Feb - 21:47:35 10° WSW 22:03:19 41° S 22:23:41 10° ESE visible
26 Feb - 00:09:00 10° WSW 00:26:17 35° SSW 00:45:06 10° SSE visible
26 Feb - 02:35:13 10° W 02:47:48 18° SW 03:00:02 10° SSW visible
26 Feb - 17:34:36 10° SSE 17:41:42 16° SE 17:50:39 10° ESE daylight
26 Feb - 19:48:42 10° SW 20:01:15 34° SSE 20:19:13 10° ESE visible
26 Feb - 22:07:36 10° WSW 22:23:25 40° S 22:43:42 10° SE visible
27 Feb - 00:29:35 10° W 00:46:12 31° SSW 01:04:08 10° SSE visible
27 Feb - 02:58:27 10° WSW 03:07:12 14° SW 03:15:48 10° SSW night (unlit)
27 Feb - 17:52:38 10° S 18:01:03 20° SE 18:12:26 10° E visible
27 Feb - 20:08:16 10° SW 20:21:07 36° SSE 20:39:42 10° ESE visible
27 Feb - 22:27:45 10° WSW 22:43:30 39° S 23:03:31 10° SE visible
28 Feb - 00:50:25 10° W 01:06:02 27° SSW 01:22:46 10° SSE visible
28 Feb - 18:11:18 10° S 18:20:32 24° SE 18:33:39 10° E visible
28 Feb - 20:28:00 10° SW 20:41:05 38° S 21:00:02 10° ESE visible
28 Feb - 22:47:59 10° WSW 23:03:35 36° SSW 23:23:08 10° SE visible
29 Feb - 01:11:37 10° W 01:25:46 23° SW 01:40:50 10° S visible
29 Feb - 18:30:22 10° SSW 18:40:08 27° SSE 18:54:32 10° ESE visible
29 Feb - 20:47:52 10° SW 21:01:06 38° S 21:20:14 10° ESE visible
29 Feb - 23:08:22 10° WSW 23:23:37 33° SSW 23:42:28 10° SSE visible
01 Mar - 01:33:26 10° WSW 01:45:24 18° SW 01:58:02 10° S visible
01 Mar - 16:37:11 10° SSE 16:41:04 12° SE 16:45:37 10° ESE daylight
01 Mar - 18:49:42 10° SSW 18:59:52 30° SSE 19:15:13 10° ESE visible
01 Mar - 21:07:52 10° WSW 21:21:10 38° S 21:40:16 10° SE visible
01 Mar - 23:28:55 10° WSW 23:43:37 30° SSW 00:01:27 10° SSE visible
02 Mar - 01:56:40 10° WSW 02:04:57 13° SW 02:13:34 10° SSW visible
02 Mar - 16:54:31 10° SSE 17:00:25 16° SE 17:08:05 10° ESE daylight
02 Mar - 19:09:14 10° SW 19:19:41 32° SSE 19:35:43 10° ESE visible
02 Mar - 21:27:58 10° WSW 21:41:16 36° S 22:00:06 10° SE visible
